Regional Weather Roundup
Issued by NWS New Orleans/Baton Rouge, LA

Home | Current Version | Previous Version | Text Only | Print | Product List | Glossary On
Versions: 1 2 3 4 5 6 7 8 9 10 11 12 13 14 15 16 17 18 19 20 21 22 23 24 25 26 27 28 29 30 31 32 33 34 35 36 37 38 39 40 41 42 43 44 45 46 47 48 49 50
000
ASUS44 KLIX 041310
RWRLIX
NEW ORLEANS REGIONAL WEATHER ROUNDUP
NATIONAL WEATHER SERVICE NEW ORLEANS LA
700 AM CST WED MAR 04 2015

NOTE: "FAIR" INDICATES FEW OR NO CLOUDS BELOW 12,000 FEET WITH NO
      SIGNIFICANT WEATHER AND/OR OBSTRUCTIONS TO VISIBILITY.
      SKY/WX - SKY CONDITION AND SIGNIFICANT WEATHER.
      TMP - AIR TEMPERATURE.     DP    - DEWPOINT TEMPERATURE.
      RH  - RELATIVE HUMIDITY.   PRES  - PRESSURE.
      HI  - HEAT INDEX.          WCI   - WIND CHILL INDEX.

*  THESE STATIONS ARE NOT NWS OR FAA STATIONS AND ARE NOT UNDER
   NWS QUALITY CONTROL.

LAZ038-040-048-061>063-065>067-069-041400-
SOUTHEAST LOUISIANA

CITY           SKY/WX    TMP DP  RH WIND       PRES   REMARKS
N.O. AUDUBON     N/A     67  67 100 MISG        N/A
N.O. INTL ARPT MOCLDY    69  66  90 S3        29.99R
N.O. LAKEFRONT CLOUDY    67  63  87 SE6       30.00R FOG
SLIDELL        LGT RAIN  67  67 100 CALM      30.00R
BATON ROUGE    MOCLDY    68  67  96 SE7       29.97R FOG
BOOTHVILLE     MOCLDY    64  64 100 E5        30.01R
BELLE CHASSE   MOCLDY    68  65  90 S7        29.99R FOG
BOGALUSA*        N/A     69  66  89 S3        30.01R
GALLIANO*      CLOUDY    64  63  97 CALM      29.99S FOG
NEW ROADS*     CLOUDY    67  66  98 SE7       29.97S FOG
GONZALES*      FOG       68  68 100 SE3       29.97S VSB 1/2
HAMMOND*       CLOUDY    64  63  94 CALM      30.00S FOG
HOUMA*         FOG       64  64 100 CALM      29.98R VSB 1/2
PORT FOURCHON* NOT AVBL

$$

MSZ070-080>082-041400-
SOUTHERN MISSISSIPPI

CITY           SKY/WX    TMP DP  RH WIND       PRES   REMARKS
MCCOMB         CLOUDY    67  66  97 S5        29.99S FOG
GULFPORT       FOG       64  63  96 SE3       30.01R VSB 1/2
BILOXI         CLOUDY    66  66  99 S8        30.01R
PASCAGOULA     CLOUDY    66  65  96 SE7       30.02R
STENNIS ARPT*  MOCLDY    64  63  94 CALM      30.01  FOG

$$

COASTAL OBSERVATIONS
LAKE AND NEARSHORE STATIONS

STATION/POSITION TIME  TEMP    WIND        PRES    WAVE
                       AIR SEA DIR/SP/G            HT/PER
                 (UTC) (F)     (DEG/KT/KT) (MB)    (FT/S)
PASCAGOULA       1300   65     140/  7/  9 1016.0
WAVELAND YACHT   1300   62 60  160/  4/  5 1016.0
GRAND ISLE       1300   68 64  140/  4/  7 1015.9
SOUTHWEST PASS   1300   65 45  160/ 10/ 12 1016.0
NEW CANAL        1300   67     150/  2/  3 1015.8
SHELL BEACH      1300   65 61  140/  5/  8 1015.8

OFFSHORE STATIONS

STATION/POSITION TIME  TEMP    WIND        PRES    WAVE
                       AIR SEA DIR/SP/G            HT/PER
                 (UTC) (F)     (DEG/KT/KT) (MB)    (FT/S)
64 S DAUPHIN ISL 1229   72 71  140/ 16/ 17 1016.6    4/ 6

$$



USA.gov is the U.S. government's official web portal to all federal, state and local government web resources and services.